,,,PA_Meas_PMT16A,,PR_Meas_QMR101_102,,RH_Meas_QMH101,,SR_Meas_QMS101,,TA_Meas_QMH101,,GenWind,,GenWind,
date,time,status,PA,status,PR,status,RH,status,SR,status,TA,status,DirAvg,status,SpdAvg,
2009-12-01, 00:00:04,VALID,1000.88,VALID,0,VALID,92.326,VALID,0,VALID,23.6427,VALID,19,VALID,0.420312,
2009-12-01, 00:01:04,VALID,1000.86,VALID,0,VALID,92.3108,VALID,0,VALID,23.6232,VALID,19,VALID,0.176563,
2009-12-01, 00:02:04,VALID,1000.86,VALID,0,VALID,92.4634,VALID,0,VALID,23.6232,VALID,19,VALID,0,
2009-12-01, 00:03:04,VALID,1000.86,VALID,0,VALID,92.532,VALID,0,VALID,23.6036,VALID,20,VALID,0,
2009-12-01, 00:04:04,VALID,1000.85,VALID,0,VALID,92.5168,VALID,0,VALID,23.6036,VALID,20,VALID,0,
2009-12-01, 00:05:04,VALID,1000.82,VALID,0,VALID,92.5626,VALID,0,VALID,23.5841,VALID,20,VALID,0,
2009-12-01, 00:06:04,VALID,1000.81,VALID,0,VALID,92.5931,VALID,0,VALID,23.6054,VALID,31,VALID,0,
2009-12-01, 00:07:04,VALID,1000.83,VALID,0,VALID,92.616,VALID,0,VALID,23.5841,VALID,37,VALID,0,
2009-12-01, 00:08:04,VALID,1000.85,VALID,0,VALID,92.6846,VALID,0,VALID,23.5841,VALID,37,VALID,0,
2009-12-01, 00:09:04,VALID,1000.83,VALID,0,VALID,92.6694,VALID,0,VALID,23.6036,VALID,39,VALID,0,
2009-12-01, 00:10:04,VALID,1000.84,VALID,0,VALID,92.6694,VALID,0,VALID,23.6054,VALID,54,VALID,0,
2009-12-01, 00:11:04,VALID,1000.86,VALID,0,VALID,92.7457,VALID,0,VALID,23.625,VALID,54,VALID,0,
2009-12-01, 00:12:04,VALID,1000.92,VALID,0,VALID,92.8143,VALID,0,VALID,23.6427,VALID,54,VALID,0,
2009-12-01, 00:13:04,VALID,1000.9,VALID,0,VALID,92.738,VALID,0,VALID,23.6232,VALID,54,VALID,0,
2009-12-01, 00:14:04,VALID,1000.89,VALID,0,VALID,92.6694,VALID,0,VALID,23.6036,VALID,54,VALID,0,
2009-12-01, 00:15:04,VALID,1000.85,VALID,0,VALID,92.616,VALID,0,VALID,23.5859,VALID,54,VALID,0,
2009-12-01, 00:16:04,VALID,1000.87,VALID,0,VALID,92.6541,VALID,0,VALID,23.5646,VALID,54,VALID,0,
2009-12-01, 00:17:04,VALID,1000.86,VALID,0,VALID,92.6694,VALID,0,VALID,23.5859,VALID,54,VALID,0,
2009-12-01, 00:18:04,VALID,1000.9,VALID,0,VALID,92.6617,VALID,0,VALID,23.5451,VALID,54,VALID,0,
2009-12-01, 00:19:04,VALID,1000.88,VALID,0,VALID,92.6999,VALID,0,VALID,23.5451,VALID,54,VALID,0,
2009-12-01, 00:20:04,VALID,1000.87,VALID,0,VALID,92.7914,VALID,0,VALID,23.5451,VALID,54,VALID,0,
2009-12-01, 00:21:04,VALID,1000.84,VALID,0,VALID,92.8448,VALID,0,VALID,23.5646,VALID,54,VALID,0,
2009-12-01, 00:22:04,VALID,1000.82,VALID,0,VALID,92.8143,VALID,0,VALID,23.5646,VALID,54,VALID,0,
2009-12-01, 00:23:04,VALID,1000.79,VALID,0,VALID,92.8296,VALID,0,VALID,23.5859,VALID,54,VALID,0,
2009-12-01, 00:24:04,VALID,1000.78,VALID,0,VALID,92.8983,VALID,0,VALID,23.5451,VALID,54,VALID,0,
2009-12-01, 00:25:04,VALID,1000.79,VALID,0,VALID,92.944,VALID,0,VALID,23.5841,VALID,54,VALID,0,
2009-12-01, 00:26:04,VALID,1000.77,VALID,0,VALID,92.9059,VALID,0,VALID,23.5646,VALID,54,VALID,0,
2009-12-01, 00:27:04,VALID,1000.75,VALID,0,VALID,92.9822,VALID,0,VALID,23.5841,VALID,54,VALID,0,
2009-12-01, 00:28:04,VALID,1000.77,VALID,0,VALID,92.9898,VALID,0,VALID,23.5841,VALID,54,VALID,0,
2009-12-01, 00:29:04,VALID,1000.76,VALID,0,VALID,92.9669,VALID,0,VALID,23.5841,VALID,354,VALID,0,
2009-12-01, 00:30:04,VALID,1000.77,VALID,0,VALID,92.9898,VALID,0,VALID,23.5859,VALID,341,VALID,0,
2009-12-01, 00:31:04,VALID,1000.73,VALID,0,VALID,93.028,VALID,0,VALID,23.5841,VALID,341,VALID,0,
2009-12-01, 00:32:04,VALID,1000.7,VALID,0,VALID,93.1043,VALID,0,VALID,23.5841,VALID,341,VALID,0,
2009-12-01, 00:33:04,VALID,1000.71,VALID,0,VALID,93.1577,VALID,0,VALID,23.6232,VALID,341,VALID,0,
2009-12-01, 00:34:04,VALID,1000.68,VALID,0,VALID,93.1119,VALID,0,VALID,23.6232,VALID,341,VALID,0,
2009-12-01, 00:35:04,VALID,1000.67,VALID,0,VALID,93.1195,VALID,0,VALID,23.6036,VALID,341,VALID,0,
2009-12-01, 00:36:04,VALID,1000.66,VALID,0,VALID,93.1119,VALID,0,VALID,23.6445,VALID,341,VALID,0,
2009-12-01, 00:37:04,VALID,1000.65,VALID,0,VALID,93.0737,VALID,0,VALID,23.6232,VALID,341,VALID,0,
2009-12-01, 00:38:04,VALID,1000.58,VALID,0,VALID,93.0737,VALID,0,VALID,23.6036,VALID,341,VALID,0,
2009-12-01, 00:39:04,VALID,1000.57,VALID,0,VALID,93.0127,VALID,0,VALID,23.6036,VALID,341,VALID,0,
2009-12-01, 00:40:04,VALID,1000.6,VALID,0,VALID,92.9822,VALID,0,VALID,23.5646,VALID,341,VALID,0,
2009-12-01, 00:41:04,VALID,1000.59,VALID,0,VALID,92.9745,VALID,0,VALID,23.5646,VALID,341,VALID,0,
2009-12-01, 00:42:04,VALID,1000.61,VALID,0,VALID,93.0051,VALID,0,VALID,23.5646,VALID,341,VALID,0,
2009-12-01, 00:43:04,VALID,1000.59,VALID,0,VALID,93.1043,VALID,0,VALID,23.5841,VALID,341,VALID,0,
2009-12-01, 00:44:04,VALID,1000.59,VALID,0,VALID,93.1805,VALID,0,VALID,23.6036,VALID,341,VALID,0,
2009-12-01, 00:45:04,VALID,1000.59,VALID,0,VALID,93.1653,VALID,0,VALID,23.6445,VALID,341,VALID,0,
2009-12-01, 00:46:04,VALID,1000.58,VALID,0,VALID,93.2111,VALID,0,VALID,23.6427,VALID,341,VALID,0,
2009-12-01, 00:47:04,VALID,1000.63,VALID,0,VALID,93.1195,VALID,0,VALID,23.6817,VALID,341,VALID,0,
2009-12-01, 00:48:04,VALID,1000.58,VALID,0,VALID,93.028,VALID,0,VALID,23.6622,VALID,341,VALID,0,
2009-12-01, 00:49:04,VALID,1000.55,VALID,0,VALID,93.0432,VALID,0,VALID,23.6622,VALID,64,VALID,0,
2009-12-01, 00:50:04,VALID,1000.57,VALID,0,VALID,92.9593,VALID,0,VALID,23.6835,VALID,88,VALID,0.570703,
2009-12-01, 00:51:04,VALID,1000.56,VALID,0,VALID,92.8448,VALID,0,VALID,23.6427,VALID,88,VALID,0.561719,
2009-12-01, 00:52:04,VALID,1000.56,VALID,0,VALID,92.8601,VALID,0,VALID,23.664,VALID,88,VALID,0.475,
2009-12-01, 00:53:04,VALID,1000.55,VALID,0,VALID,92.7151,VALID,0,VALID,23.6445,VALID,88,VALID,0.698828,
2009-12-01, 00:54:04,VALID,1000.55,VALID,0,VALID,92.6236,VALID,0,VALID,23.6054,VALID,86,VALID,0.670703,
2009-12-01, 00:55:04,VALID,1000.51,VALID,0,VALID,92.5397,VALID,0,VALID,23.5451,VALID,86,VALID,0.425,
2009-12-01, 00:56:04,VALID,1000.5,VALID,0,VALID,92.5626,VALID,0,VALID,23.5256,VALID,86,VALID,0.555078,
2009-12-01, 00:57:04,VALID,1000.5,VALID,0,VALID,92.6846,VALID,0,VALID,23.5256,VALID,86,VALID,0.455859,
2009-12-01, 00:58:04,VALID,1000.45,VALID,0,VALID,92.6694,VALID,0,VALID,23.5256,VALID,86,VALID,0.296094,
2009-12-01, 00:59:04,VALID,1000.46,VALID,0,VALID,92.6694,VALID,0,VALID,23.4866,VALID,86,VALID,0,
2009-12-01, 01:00:04,VALID,1000.46,VALID,0,VALID,92.7762,VALID,0,VALID,23.4866,VALID,86,VALID,0.165234,
2009-12-01, 01:01:04,VALID,1000.42,VALID,0,VALID,92.9059,VALID,0,VALID,23.5256,VALID,86,VALID,1.00312,
2009-12-01, 01:02:04,VALID,1000.44,VALID,0,VALID,92.7533,VALID,0,VALID,23.5256,VALID,81,VALID,1.09492,
2009-12-01, 01:03:04,VALID,1000.43,VALID,0,VALID,92.5931,VALID,0,VALID,23.428,VALID,59,VALID,0.403125,
2009-12-01, 01:04:04,VALID,1000.4,VALID,0,VALID,92.5626,VALID,0,VALID,23.4085,VALID,345,VALID,0.700781,
2009-12-01, 01:05:04,VALID,1000.45,VALID,0,VALID,92.6999,VALID,0,VALID,23.428,VALID,336,VALID,0.455469,
2009-12-01, 01:06:04,VALID,1000.41,VALID,0,VALID,92.8296,VALID,0,VALID,23.428,VALID,27,VALID,0.650391,
2009-12-01, 01:07:04,VALID,1000.4,VALID,0,VALID,92.8525,VALID,0,VALID,23.4475,VALID,59,VALID,0.738281,
2009-12-01, 01:08:04,VALID,1000.39,VALID,0,VALID,92.7991,VALID,0,VALID,23.4085,VALID,67,VALID,0.362109,
2009-12-01, 01:09:04,VALID,1000.4,VALID,0,VALID,92.7685,VALID,0,VALID,23.389,VALID,67,VALID,0.233203,
2009-12-01, 01:10:04,VALID,1000.34,VALID,0,VALID,92.8601,VALID,0,VALID,23.389,VALID,67,VALID,0.303906,
2009-12-01, 01:11:04,VALID,1000.32,VALID,0,VALID,92.9211,VALID,0,VALID,23.389,VALID,67,VALID,0.3375,
2009-12-01, 01:12:04,VALID,1000.36,VALID,0,VALID,92.9288,VALID,0,VALID,23.4103,VALID,67,VALID,0.364844,
2009-12-01, 01:13:04,VALID,1000.32,VALID,0,VALID,92.9059,VALID,0,VALID,23.3908,VALID,67,VALID,0.155859,
2009-12-01, 01:14:04,VALID,1000.31,VALID,0,VALID,92.8448,VALID,0,VALID,23.3518,VALID,67,VALID,0,
2009-12-01, 01:15:04,VALID,1000.32,VALID,0,VALID,92.8983,VALID,0,VALID,23.3305,VALID,67,VALID,0,
2009-12-01, 01:16:04,VALID,1000.3,VALID,0,VALID,92.9517,VALID,0,VALID,23.3305,VALID,67,VALID,0,
2009-12-01, 01:17:04,VALID,1000.31,VALID,0,VALID,93.028,VALID,0,VALID,23.3305,VALID,67,VALID,0,
2009-12-01, 01:18:04,VALID,1000.3,VALID,0,VALID,93.0356,VALID,0,VALID,23.3518,VALID,67,VALID,0,
2009-12-01, 01:19:04,VALID,1000.27,VALID,0,VALID,93.0203,VALID,0,VALID,23.311,VALID,67,VALID,0,
2009-12-01, 01:20:04,VALID,1000.29,VALID,0,VALID,92.9974,VALID,0,VALID,23.2915,VALID,67,VALID,0,
2009-12-01, 01:21:04,VALID,1000.31,VALID,0,VALID,93.0051,VALID,0,VALID,23.2719,VALID,67,VALID,0,
2009-12-01, 01:22:04,VALID,1000.28,VALID,0,VALID,93.0356,VALID,0,VALID,23.2719,VALID,67,VALID,0,
2009-12-01, 01:23:04,VALID,1000.28,VALID,0,VALID,93.089,VALID,0,VALID,23.2915,VALID,67,VALID,0,
2009-12-01, 01:24:04,VALID,1000.28,VALID,0,VALID,93.1729,VALID,0,VALID,23.311,VALID,70,VALID,0.4,
2009-12-01, 01:25:04,VALID,1000.22,VALID,0,VALID,93.3637,VALID,0,VALID,23.35,VALID,73,VALID,0.691406,
2009-12-01, 01:26:04,VALID,1000.27,VALID,0,VALID,93.3713,VALID,0,VALID,23.3872,VALID,73,VALID,0.408984,
2009-12-01, 01:27:04,VALID,1000.26,VALID,0,VALID,93.3637,VALID,0,VALID,23.4085,VALID,73,VALID,0.285156,
2009-12-01, 01:28:04,VALID,1000.28,VALID,0,VALID,93.3179,VALID,0,VALID,23.4085,VALID,73,VALID,0.380078,
2009-12-01, 01:29:04,VALID,1000.25,VALID,0,VALID,93.356,VALID,0,VALID,23.428,VALID,73,VALID,0.332422,
2009-12-01, 01:30:04,VALID,1000.26,VALID,0,VALID,93.2797,VALID,0,VALID,23.4085,VALID,73,VALID,0.370313,
2009-12-01, 01:31:04,VALID,1000.3,VALID,0,VALID,93.3637,VALID,0,VALID,23.4085,VALID,73,VALID,0.371094,
2009-12-01, 01:32:04,VALID,1000.27,VALID,0,VALID,93.3637,VALID,0,VALID,23.4688,VALID,86,VALID,0.487109,
2009-12-01, 01:33:04,VALID,1000.25,VALID,0,VALID,93.2568,VALID,0,VALID,23.4085,VALID,94,VALID,0.472266,
2009-12-01, 01:34:04,VALID,1000.26,VALID,0,VALID,93.2492,VALID,0,VALID,23.4085,VALID,96,VALID,0,
2009-12-01, 01:35:04,VALID,1000.25,VALID,0,VALID,93.2874,VALID,0,VALID,23.428,VALID,96,VALID,0.0652344,
2009-12-01, 01:36:04,VALID,1000.26,VALID,0,VALID,93.3255,VALID,0,VALID,23.4475,VALID,97,VALID,0.616016,
2009-12-01, 01:37:04,VALID,1000.24,VALID,0,VALID,93.2492,VALID,0,VALID,23.428,VALID,99,VALID,0.330859,
2009-12-01, 01:38:04,VALID,1000.3,VALID,0,VALID,93.1958,VALID,0,VALID,23.389,VALID,99,VALID,0,
2009-12-01, 01:39:04,VALID,1000.28,VALID,0,VALID,93.1805,VALID,0,VALID,23.3695,VALID,99,VALID,0,
2009-12-01, 01:40:04,VALID,1000.29,VALID,0,VALID,93.1729,VALID,0,VALID,23.389,VALID,99,VALID,0,
2009-12-01, 01:41:04,VALID,1000.34,VALID,0,VALID,93.2111,VALID,0,VALID,23.3908,VALID,73,VALID,0.334375,
2009-12-01, 01:42:04,VALID,1000.3,VALID,0,VALID,93.2111,VALID,0,VALID,23.389,VALID,65,VALID,0.623438,
2009-12-01, 01:43:04,VALID,1000.26,VALID,0,VALID,93.2187,VALID,0,VALID,23.4085,VALID,65,VALID,0.552734,
2009-12-01, 01:44:04,VALID,1000.27,VALID,0,VALID,93.2492,VALID,0,VALID,23.4085,VALID,65,VALID,0.501172,
2009-12-01, 01:45:04,VALID,1000.26,VALID,0,VALID,93.1958,VALID,0,VALID,23.4085,VALID,65,VALID,0.460938,
2009-12-01, 01:46:04,VALID,1000.24,VALID,0,VALID,93.1958,VALID,0,VALID,23.4085,VALID,65,VALID,0.21875,
2009-12-01, 01:47:04,VALID,1000.25,VALID,0,VALID,93.1729,VALID,0,VALID,23.389,VALID,65,VALID,0.31875,
2009-12-01, 01:48:04,VALID,1000.22,VALID,0,VALID,93.1043,VALID,0,VALID,23.35,VALID,65,VALID,0,
2009-12-01, 01:49:04,VALID,1000.24,VALID,0,VALID,93.0508,VALID,0,VALID,23.3305,VALID,65,VALID,0.00351562,
2009-12-01, 01:50:04,VALID,1000.23,VALID,0,VALID,93.0508,VALID,0,VALID,23.311,VALID,65,VALID,0.342969,
2009-12-01, 01:51:04,VALID,1000.2,VALID,0,VALID,93.1119,VALID,0,VALID,23.311,VALID,57,VALID,0.554688,
2009-12-01, 01:52:04,VALID,1000.21,VALID,0,VALID,93.1882,VALID,0,VALID,23.35,VALID,47,VALID,0.515625,
2009-12-01, 01:53:04,VALID,1000.22,VALID,0,VALID,93.3103,VALID,0,VALID,23.389,VALID,47,VALID,0.507422,
2009-12-01, 01:54:04,VALID,1000.21,VALID,0,VALID,93.3484,VALID,0,VALID,23.4067,VALID,47,VALID,0.532031,
2009-12-01, 01:55:04,VALID,1000.2,VALID,0,VALID,93.2721,VALID,0,VALID,23.4085,VALID,42,VALID,0.462891,
2009-12-01, 01:56:04,VALID,1000.19,VALID,0,VALID,93.1958,VALID,0,VALID,23.4103,VALID,42,VALID,0.296094,
2009-12-01, 01:57:04,VALID,1000.2,VALID,0,VALID,93.1805,VALID,0,VALID,23.3695,VALID,42,VALID,0,
2009-12-01, 01:58:04,VALID,1000.15,VALID,0,VALID,93.1729,VALID,0,VALID,23.3908,VALID,42,VALID,0,
2009-12-01, 01:59:04,VALID,1000.16,VALID,0,VALID,93.1882,VALID,0,VALID,23.3695,VALID,42,VALID,0,
2009-12-01, 02:00:04,VALID,1000.14,VALID,0,VALID,93.2263,VALID,0,VALID,23.389,VALID,42,VALID,0,
2009-12-01, 02:01:04,VALID,1000.08,VALID,0,VALID,93.2263,VALID,0,VALID,23.389,VALID,42,VALID,0,
2009-12-01, 02:02:04,VALID,1000.07,VALID,0,VALID,93.2416,VALID,0,VALID,23.3695,VALID,42,VALID,0,
2009-12-01, 02:03:04,VALID,1000.06,VALID,0,VALID,93.1577,VALID,0,VALID,23.35,VALID,42,VALID,0,
2009-12-01, 02:04:04,VALID,1000.08,VALID,0,VALID,93.1577,VALID,0,VALID,23.3305,VALID,42,VALID,0,
2009-12-01, 02:05:04,VALID,1000.07,VALID,0,VALID,93.1424,VALID,0,VALID,23.311,VALID,42,VALID,0,
2009-12-01, 02:06:04,VALID,1000.04,VALID,0,VALID,93.089,VALID,0,VALID,23.2719,VALID,42,VALID,0,
2009-12-01, 02:07:04,VALID,1000.09,VALID,0,VALID,93.0966,VALID,0,VALID,23.2329,VALID,42,VALID,0,
2009-12-01, 02:08:04,VALID,1000.11,VALID,0,VALID,93.1119,VALID,0,VALID,23.2134,VALID,42,VALID,0,
2009-12-01, 02:09:04,VALID,1000.13,VALID,0,VALID,93.2492,VALID,0,VALID,23.2134,VALID,42,VALID,0,
2009-12-01, 02:10:04,VALID,1000.11,VALID,0,VALID,93.3255,VALID,0,VALID,23.2524,VALID,42,VALID,0,
2009-12-01, 02:11:04,VALID,1000.1,VALID,0,VALID,93.3331,VALID,0,VALID,23.2719,VALID,42,VALID,0,
2009-12-01, 02:12:04,VALID,1000.11,VALID,0,VALID,93.3408,VALID,0,VALID,23.2702,VALID,42,VALID,0,
2009-12-01, 02:13:04,VALID,1000.12,VALID,0,VALID,93.3179,VALID,0,VALID,23.2719,VALID,42,VALID,0,
2009-12-01, 02:14:04,VALID,1000.13,VALID,0,VALID,93.3789,VALID,0,VALID,23.2719,VALID,114,VALID,0,
2009-12-01, 02:15:04,VALID,1000.09,VALID,0,VALID,93.4476,VALID,0,VALID,23.311,VALID,117,VALID,0.245703,
2009-12-01, 02:16:04,VALID,1000.14,VALID,0,VALID,93.5468,VALID,0,VALID,23.3695,VALID,118,VALID,0.240625,
2009-12-01, 02:17:04,VALID,1000.13,VALID,0,VALID,93.562,VALID,0,VALID,23.4085,VALID,118,VALID,0.408594,
2009-12-01, 02:18:04,VALID,1000.13,VALID,0,VALID,93.5315,VALID,0,VALID,23.428,VALID,118,VALID,0.320703,
2009-12-01, 02:19:04,VALID,1000.15,VALID,0,VALID,93.5163,VALID,0,VALID,23.4475,VALID,118,VALID,0,
2009-12-01, 02:20:04,VALID,1000.12,VALID,0,VALID,93.4857,VALID,0,VALID,23.4475,VALID,118,VALID,0,
2009-12-01, 02:21:04,VALID,1000.11,VALID,0,VALID,93.4857,VALID,0,VALID,23.4475,VALID,118,VALID,0,
2009-12-01, 02:22:04,VALID,1000.05,VALID,0,VALID,93.5086,VALID,0,VALID,23.4475,VALID,118,VALID,0,
2009-12-01, 02:23:04,VALID,1000.04,VALID,0,VALID,93.501,VALID,0,VALID,23.4475,VALID,118,VALID,0,
2009-12-01, 02:24:04,VALID,1000.01,VALID,0,VALID,93.4857,VALID,0,VALID,23.4671,VALID,118,VALID,0,
2009-12-01, 02:25:04,VALID,1000.02,VALID,0,VALID,93.5086,VALID,0,VALID,23.4866,VALID,118,VALID,0,
2009-12-01, 02:26:04,VALID,1000.08,VALID,0,VALID,93.4628,VALID,0,VALID,23.5061,VALID,118,VALID,0,
2009-12-01, 02:27:04,VALID,1000.08,VALID,0,VALID,93.4476,VALID,0,VALID,23.5256,VALID,118,VALID,0,
2009-12-01, 02:28:04,VALID,1000.09,VALID,0,VALID,93.3331,VALID,0,VALID,23.4866,VALID,118,VALID,0,
2009-12-01, 02:29:04,VALID,1000.11,VALID,0,VALID,93.2645,VALID,0,VALID,23.4671,VALID,118,VALID,0,
2009-12-01, 02:30:04,VALID,1000.15,VALID,0,VALID,93.2263,VALID,0,VALID,23.4475,VALID,118,VALID,0,
2009-12-01, 02:31:04,VALID,1000.16,VALID,0,VALID,93.2797,VALID,0,VALID,23.4866,VALID,118,VALID,0,
2009-12-01, 02:32:04,VALID,1000.16,VALID,0,VALID,93.2416,VALID,0,VALID,23.4866,VALID,118,VALID,0,
2009-12-01, 02:33:04,VALID,1000.17,VALID,0,VALID,93.2187,VALID,0,VALID,23.4866,VALID,118,VALID,0,
2009-12-01, 02:34:04,VALID,1000.14,VALID,0,VALID,93.1882,VALID,0,VALID,23.4866,VALID,118,VALID,0,
2009-12-01, 02:35:04,VALID,1000.14,VALID,0,VALID,93.089,VALID,0,VALID,23.4671,VALID,118,VALID,0,
2009-12-01, 02:36:04,VALID,1000.12,VALID,0,VALID,93.0661,VALID,0,VALID,23.4884,VALID,118,VALID,0,
2009-12-01, 02:37:04,VALID,1000.11,VALID,0,VALID,92.9898,VALID,0,VALID,23.428,VALID,118,VALID,0,
2009-12-01, 02:38:04,VALID,1000.09,VALID,0,VALID,92.8677,VALID,0,VALID,23.3695,VALID,118,VALID,0,
2009-12-01, 02:39:04,VALID,1000.1,VALID,0,VALID,92.9288,VALID,0,VALID,23.3713,VALID,118,VALID,0,
2009-12-01, 02:40:04,VALID,1000.1,VALID,0,VALID,93.0051,VALID,0,VALID,23.35,VALID,118,VALID,0,
2009-12-01, 02:41:04,VALID,1000.07,VALID,0,VALID,93.0737,VALID,0,VALID,23.35,VALID,118,VALID,0,
2009-12-01, 02:42:04,VALID,1000.08,VALID,0,VALID,93.1271,VALID,0,VALID,23.3695,VALID,118,VALID,0,
2009-12-01, 02:43:04,VALID,1000.09,VALID,0,VALID,93.2034,VALID,0,VALID,23.389,VALID,118,VALID,0,
2009-12-01, 02:44:04,VALID,1000.06,VALID,0,VALID,93.234,VALID,0,VALID,23.428,VALID,118,VALID,0,
2009-12-01, 02:45:04,VALID,1000.08,VALID,0,VALID,93.2416,VALID,0,VALID,23.428,VALID,124,VALID,0.623047,
2009-12-01, 02:46:04,VALID,1000.06,VALID,0,VALID,93.234,VALID,0,VALID,23.4671,VALID,127,VALID,0.55625,
2009-12-01, 02:47:04,VALID,1000.05,VALID,0,VALID,93.2111,VALID,0,VALID,23.4671,VALID,127,VALID,0.446484,
2009-12-01, 02:48:04,VALID,1000.06,VALID,0,VALID,93.1271,VALID,0,VALID,23.4671,VALID,127,VALID,0.370313,
2009-12-01, 02:49:04,VALID,1000.03,VALID,0,VALID,93.0508,VALID,0,VALID,23.4458,VALID,127,VALID,0.400391,
2009-12-01, 02:50:04,VALID,1000.06,VALID,0,VALID,92.9974,VALID,0,VALID,23.4671,VALID,127,VALID,0.495703,
2009-12-01, 02:51:04,VALID,1000.06,VALID,0,VALID,92.8983,VALID,0,VALID,23.4475,VALID,127,VALID,0.276563,
2009-12-01, 02:52:04,VALID,1000.04,VALID,0,VALID,92.8983,VALID,0,VALID,23.428,VALID,126,VALID,0.419531,
2009-12-01, 02:53:04,VALID,1000.04,VALID,0,VALID,92.9364,VALID,0,VALID,23.428,VALID,127,VALID,0.292578,
2009-12-01, 02:54:04,VALID,1000.05,VALID,0,VALID,92.9135,VALID,0,VALID,23.428,VALID,126,VALID,0,
2009-12-01, 02:55:04,VALID,999.999,VALID,0,VALID,92.7991,VALID,0,VALID,23.3908,VALID,127,VALID,0,
2009-12-01, 02:56:04,VALID,1000.05,VALID,0,VALID,92.8448,VALID,0,VALID,23.35,VALID,126,VALID,0,
2009-12-01, 02:57:04,VALID,1000.04,VALID,0,VALID,92.9135,VALID,0,VALID,23.3695,VALID,126,VALID,0,
2009-12-01, 02:58:04,VALID,1000.07,VALID,0,VALID,92.9898,VALID,0,VALID,23.3695,VALID,126,VALID,0,
2009-12-01, 02:59:04,VALID,1000.05,VALID,0,VALID,93.0661,VALID,0,VALID,23.389,VALID,126,VALID,0,
2009-12-01, 03:00:04,VALID,1000.09,VALID,0,VALID,93.1043,VALID,0,VALID,23.4085,VALID,98,VALID,0,
2009-12-01, 03:01:04,VALID,1000.08,VALID,0,VALID,93.089,VALID,0,VALID,23.4085,VALID,72,VALID,0.980469,
2009-12-01, 03:02:04,VALID,1000.1,VALID,0,VALID,93.0432,VALID,0,VALID,23.428,VALID,82,VALID,1.07891,
2009-12-01, 03:03:04,VALID,1000.08,VALID,0,VALID,92.9288,VALID,0,VALID,23.4085,VALID,73,VALID,0.519531,
2009-12-01, 03:04:04,VALID,1000.1,VALID,0,VALID,92.8525,VALID,0,VALID,23.3695,VALID,61,VALID,0.408984,
2009-12-01, 03:05:04,VALID,1000.13,VALID,0,VALID,92.7533,VALID,0,VALID,23.311,VALID,42,VALID,0.496094,
2009-12-01, 03:06:04,VALID,1000.11,VALID,0,VALID,92.8372,VALID,0,VALID,23.3305,VALID,36,VALID,0.326172,
2009-12-01, 03:07:04,VALID,1000.12,VALID,0,VALID,92.8448,VALID,0,VALID,23.3305,VALID,36,VALID,0.302734,
2009-12-01, 03:08:04,VALID,1000.12,VALID,0,VALID,92.7609,VALID,0,VALID,23.2719,VALID,36,VALID,0.0789063,
2009-12-01, 03:09:04,VALID,1000.1,VALID,0,VALID,92.738,VALID,0,VALID,23.2329,VALID,36,VALID,0,
2009-12-01, 03:10:04,VALID,1000.1,VALID,0,VALID,92.6617,VALID,0,VALID,23.1939,VALID,36,VALID,0,
2009-12-01, 03:11:04,VALID,1000.08,VALID,0,VALID,92.738,VALID,0,VALID,23.1549,VALID,36,VALID,0.5375,
2009-12-01, 03:12:04,VALID,1000.07,VALID,0,VALID,92.8906,VALID,0,VALID,23.1744,VALID,36,VALID,0.517969,
2009-12-01, 03:13:04,VALID,1000.12,VALID,0,VALID,92.883,VALID,0,VALID,23.1744,VALID,29,VALID,0.314453,
2009-12-01, 03:14:04,VALID,1000.16,VALID,0,VALID,92.883,VALID,0,VALID,23.1354,VALID,354,VALID,0.519141,
2009-12-01, 03:15:04,VALID,1000.16,VALID,0,VALID,92.9135,VALID,0,VALID,23.1354,VALID,353,VALID,0.610547,
2009-12-01, 03:16:04,VALID,1000.15,VALID,0,VALID,92.9669,VALID,0,VALID,23.1354,VALID,8,VALID,0.935938,
2009-12-01, 03:17:04,VALID,1000.15,VALID,0,VALID,93.0127,VALID,0,VALID,23.1354,VALID,10,VALID,1.08125,
2009-12-01, 03:18:04,VALID,1000.19,VALID,0,VALID,93.028,VALID,0,VALID,23.1354,VALID,8,VALID,0.828125,
2009-12-01, 03:19:04,VALID,1000.18,VALID,0,VALID,93.089,VALID,0,VALID,23.1354,VALID,26,VALID,0.841406,
2009-12-01, 03:20:04,VALID,1000.16,VALID,0,VALID,93.2416,VALID,0,VALID,23.1744,VALID,50,VALID,1.13359,
2009-12-01, 03:21:04,VALID,1000.14,VALID,0,VALID,93.234,VALID,0,VALID,23.1939,VALID,61,VALID,1.31211,
2009-12-01, 03:22:04,VALID,1000.15,VALID,0,VALID,93.2187,VALID,0,VALID,23.2134,VALID,62,VALID,1.03945,
2009-12-01, 03:23:04,VALID,1000.16,VALID,0,VALID,93.1805,VALID,0,VALID,23.2134,VALID,30,VALID,0.316797,
2009-12-01, 03:24:04,VALID,1000.17,VALID,0,VALID,93.2492,VALID,0,VALID,23.2524,VALID,295,VALID,0.804688,
2009-12-01, 03:25:04,VALID,1000.17,VALID,0,VALID,93.2874,VALID,0,VALID,23.2719,VALID,299,VALID,0.405859,
2009-12-01, 03:26:04,VALID,1000.18,VALID,0,VALID,93.3103,VALID,0,VALID,23.2915,VALID,308,VALID,0.299609,
2009-12-01, 03:27:04,VALID,1000.18,VALID,0,VALID,93.2721,VALID,0,VALID,23.311,VALID,353,VALID,0.594141,
2009-12-01, 03:28:04,VALID,1000.14,VALID,0,VALID,93.1805,VALID,0,VALID,23.2719,VALID,32,VALID,0.750391,
2009-12-01, 03:29:04,VALID,1000.14,VALID,0,VALID,93.2111,VALID,0,VALID,23.2719,VALID,63,VALID,0.862891,
2009-12-01, 03:30:04,VALID,1000.14,VALID,0,VALID,93.2416,VALID,0,VALID,23.2719,VALID,50,VALID,0.844922,
2009-12-01, 03:31:04,VALID,1000.11,VALID,0,VALID,93.1348,VALID,0,VALID,23.2719,VALID,47,VALID,0.341797,
2009-12-01, 03:32:04,VALID,1000.08,VALID,0,VALID,93.1577,VALID,0,VALID,23.2524,VALID,38,VALID,0.715234,
2009-12-01, 03:33:04,VALID,1000.11,VALID,0,VALID,93.1119,VALID,0,VALID,23.2524,VALID,348,VALID,0.473047,
2009-12-01, 03:34:04,VALID,1000.12,VALID,0,VALID,93.1195,VALID,0,VALID,23.2524,VALID,348,VALID,0.380469,
2009-12-01, 03:35:04,VALID,1000.11,VALID,0,VALID,93.1577,VALID,0,VALID,23.2719,VALID,348,VALID,0.0304688,
2009-12-01, 03:36:04,VALID,1000.13,VALID,0,VALID,93.15,VALID,0,VALID,23.2719,VALID,348,VALID,0,
2009-12-01, 03:37:04,VALID,1000.11,VALID,0,VALID,93.1958,VALID,0,VALID,23.2719,VALID,348,VALID,0,
2009-12-01, 03:38:04,VALID,1000.13,VALID,0,VALID,93.1195,VALID,0,VALID,23.2524,VALID,348,VALID,0.521875,
2009-12-01, 03:39:04,VALID,1000.14,VALID,0,VALID,93.089,VALID,0,VALID,23.2524,VALID,348,VALID,0.736719,
2009-12-01, 03:40:04,VALID,1000.16,VALID,0,VALID,93.1882,VALID,0,VALID,23.2524,VALID,5,VALID,1.09297,
2009-12-01, 03:41:04,VALID,1000.15,VALID,0,VALID,93.1729,VALID,0,VALID,23.2915,VALID,27,VALID,1.1043,
2009-12-01, 03:42:04,VALID,1000.19,VALID,0,VALID,93.1195,VALID,0,VALID,23.2915,VALID,32,VALID,0.943359,
2009-12-01, 03:43:04,VALID,1000.21,VALID,0,VALID,92.9898,VALID,0,VALID,23.2329,VALID,327,VALID,0.570313,
2009-12-01, 03:44:04,VALID,1000.22,VALID,0,VALID,93.0661,VALID,0,VALID,23.2932,VALID,306,VALID,0.33125,
2009-12-01, 03:45:04,VALID,1000.25,VALID,0,VALID,93.0966,VALID,0,VALID,23.311,VALID,306,VALID,0.0328125,
2009-12-01, 03:46:04,VALID,1000.28,VALID,0,VALID,93.1424,VALID,0,VALID,23.35,VALID,19,VALID,0.759766,
2009-12-01, 03:47:04,VALID,1000.29,VALID,0,VALID,93.15,VALID,0,VALID,23.4103,VALID,29,VALID,1.40234,
2009-12-01, 03:48:04,VALID,1000.37,VALID,0,VALID,93.028,VALID,0,VALID,23.4085,VALID,24,VALID,1.16406,
2009-12-01, 03:49:04,VALID,1000.39,VALID,0,VALID,92.8906,VALID,0,VALID,23.4493,VALID,358,VALID,0.832812,
2009-12-01, 03:50:04,VALID,1000.38,VALID,0,VALID,92.8296,VALID,0,VALID,23.4475,VALID,336,VALID,0.813672,
2009-12-01, 03:51:04,VALID,1000.38,VALID,0,VALID,92.7533,VALID,0,VALID,23.4671,VALID,336,VALID,0.429297,
2009-12-01, 03:52:04,VALID,1000.41,VALID,0,VALID,92.7228,VALID,0,VALID,23.5079,VALID,2,VALID,0.592578,
2009-12-01, 03:53:04,VALID,1000.41,VALID,0,VALID,92.677,VALID,0,VALID,23.5274,VALID,34,VALID,0.801172,
2009-12-01, 03:54:04,VALID,1000.43,VALID,0,VALID,92.6007,VALID,0,VALID,23.5061,VALID,49,VALID,0.485156,